Weather History for KOLS - November, 2012

Change the Weather History Date:

Tuesday, November 27, 2012

  Actual Average (KTUS) Record (KTUS)
Temperature  
Mean Temperature 57 °F 56 °F  
Max Temperature 75 °F 69 °F 85 °F (1950)
Min Temperature 39 °F 42 °F 25 °F (1911)
Degree Days  
Heating Degree Days 8 10  
Month to date heating degree days 153  
Since 1 July heating degree days 177  
Cooling Degree Days 0 0  
Month to date cooling degree days 25  
Year to date cooling degree days 3144  
Growing Degree Days 7 (Base 50)    
Moisture  
Dew Point 27 °F    
Average Humidity 36    
Maximum Humidity 53    
Minimum Humidity 16    
Precipitation  
Precipitation 0.00 in 0.02 in 0.42 in (1909)
Month to date precipitation 0.50  
Year to date precipitation 10.59  
Sea Level Pressure  
Sea Level Pressure 30.15 in    
Wind  
Wind Speed 3 mph (SE)    
Max Wind Speed 12 mph    
Max Gust Speed 18 mph    
Visibility 10 miles    
Events      
T = Trace of Precipitation, MM = Missing Value Source: NWS Daily Summary

Daily Weather History Graph

Daily Weather History Graph

Search for Another Location

Airport or City:

Trip Planner

Search our weather history database for the weather conditions in past years. The results will help you decide how hot, cold, wet, or windy it might be!

Date:

Astronomy

Nov. 27, 2012 Rise Set
Actual Time 7:01 AM MST 5:20 PM MST
Civil Twilight 6:35 AM MST 5:46 PM MST
Nautical Twilight 6:05 AM MST 6:16 PM MST
Astronomical Twilight 5:36 AM MST 6:45 PM MST
Moon 4:53 PM MST (11/27) 6:11 AM MST (11/27)
Length of Visible Light 11h 11m
Length of Day
10h 18m
Waxing Gibbous, 99% of the Moon is Illuminated
Nov 27
Waxing Gibbous
Nov 28
Full
Dec 6
Last Quarter
Dec 13
New
Dec 19
First Quarter

Hourly Weather History & Observations

Time (MST) Temp. Windchill Dew Point Humidity Pressure Visibility Wind Dir Wind Speed Gust Speed Precip Events Conditions
12:54 AM 45.0 °F - 24.1 °F 44% 30.08 in 10.0 mi Calm Calm - N/A   Clear
1:54 AM 44.1 °F - 24.1 °F 45% 30.08 in 10.0 mi Calm Calm - N/A   Clear
2:54 AM 44.1 °F - 24.1 °F 45% 30.08 in 10.0 mi Calm Calm - N/A   Clear
3:54 AM 41.0 °F 38.0 °F 24.1 °F 51% 30.08 in 10.0 mi ESE 4.6 mph - N/A   Clear
4:54 AM 41.0 °F 37.1 °F 24.8 °F 53% 30.19 in 10.0 mi South 5.8 mph - N/A   Clear
5:54 AM 41.0 °F 38.0 °F 24.1 °F 51% 30.12 in 10.0 mi ENE 4.6 mph - N/A   Clear
6:54 AM 39.9 °F 37.8 °F 24.1 °F 53% 30.15 in 10.0 mi ENE 3.5 mph - N/A   Clear
7:54 AM 45.0 °F - 25.0 °F 46% 30.17 in 10.0 mi Calm Calm - N/A   Clear
8:54 AM 57.0 °F - 27.0 °F 32% 30.15 in 10.0 mi Calm Calm - N/A   Clear
9:54 AM 63.0 °F - 26.1 °F 25% 30.16 in 10.0 mi Variable 3.5 mph - N/A   Clear
1:54 PM 75.9 °F - 28.0 °F 17% 30.16 in 10.0 mi South 10.4 mph 18.4 mph N/A   Unknown
2:54 PM 75.2 °F - 28.4 °F 18% 30.15 in 10.0 mi South 11.5 mph - N/A   Clear
3:54 PM 75.9 °F - 27.0 °F 16% 30.14 in 10.0 mi South 5.8 mph - N/A   Clear
4:54 PM 72.0 °F - 28.0 °F 20% 30.14 in 10.0 mi South 4.6 mph - N/A   Clear
5:54 PM 64.9 °F - 28.9 °F 26% 30.15 in 10.0 mi ESE 3.5 mph - N/A   Clear
6:54 PM 61.0 °F - 28.0 °F 29% 30.15 in 10.0 mi East 9.2 mph - N/A   Clear
7:54 PM 60.1 °F - 28.0 °F 30% 30.18 in 10.0 mi SSW 4.6 mph - N/A   Clear
8:54 PM 57.0 °F - 28.0 °F 33% 30.19 in 10.0 mi Calm Calm - N/A   Clear
9:54 PM 54.0 °F - 28.0 °F 37% 30.21 in 10.0 mi ENE 5.8 mph - N/A   Clear
10:54 PM 52.0 °F - 28.9 °F 41% 30.22 in 10.0 mi NE 6.9 mph - N/A   Clear
11:54 PM 51.1 °F - 28.9 °F 43% 30.22 in 10.0 mi Calm Calm - N/A   Clear